Regional Weather Roundup
Issued by NWS Little Rock, AR

Home | Current Version | Previous Version | Graphics & Text | Print | Product List | Glossary On
Versions: 1 2 3 4 5 6 7 8 9 10 11 12 13 14 15 16 17 18 19 20 21 22 23 24 25 26 27 28 29 30 31 32 33 34 35 36 37 38 39 40 41 42 43 44 45 46 47 48 49 50
891
ASUS44 KLZK 260905
RWRLZK

WEATHER ROUNDUP FOR ARKANSAS
NATIONAL WEATHER SERVICE LITTLE ROCK AR
400 AM CDT THU MAY 26 2016

NOTE: "FAIR" INDICATES FEW OR NO CLOUDS BELOW 12,000 FEET WITH NO
SIGNIFICANT WEATHER AND/OR OBSTRUCTIONS TO VISIBILITY.

ARZ001-003-010-029-261000-
NORTHWEST ARKANSAS

CITY           SKY/WX    TMP DP  RH WIND       PRES   REMARKS
FAYETTEVILLE   PTCLDY    74  73  97 S12       29.94F
FORT SMITH     MOCLDY    74  71  91 CALM      29.92F
HARRISON       CLEAR     70  68  93 SE6       29.96F FOG
BENTONVILLE    CLEAR     73  68  83 S7        29.93F
ROGERS           N/A     73  71  93 S12       29.93F
SILOAM SPGS    PTCLDY    73  64  73 S10       29.93F
HIGHFILL       CLOUDY    73  72  96 S12       29.92F
$$

ARZ004-005-016-261000-
NORTH CENTRAL ARKANSAS

CITY           SKY/WX    TMP DP  RH WIND       PRES   REMARKS
BATESVILLE     MOCLDY    73  72  94 S5        29.98F
FLIPPIN        CLEAR    N/A N/A N/A CALM      29.92F
MTN HOME       CLEAR     70  69  97 SE3       29.95F FOG
$$

ARZ040-041-261000-
WEST CENTRAL ARKANSAS

CITY           SKY/WX    TMP DP  RH WIND       PRES   REMARKS
MENA           CLOUDY    79  77  94 S7        29.98F
MOUNT IDA      CLOUDY    79  72  79 VRB3      29.96F
$$

ARZ009-017-025-026-028-261000-
NORTHEAST ARKANSAS

CITY           SKY/WX    TMP DP  RH WIND       PRES   REMARKS
CORNING          N/A     68  68 100 S6        29.99S
JONESBORO      CLEAR     70  68  93 S6        29.98F
NEWPORT        CLEAR     73  73 100 S7        29.98F
WALNUT RIDGE   CLEAR     72  66  83 S9        29.98F
BLYTHEVILLE    CLEAR     69  63  81 S8        30.01F
$$

ARZ022-023-033-042-044-261000-
CENTRAL ARKANSAS

CITY           SKY/WX    TMP DP  RH WIND       PRES   REMARKS
LITTLE ROCK    MOCLDY    78  73  84 SW13      29.98F
N LITTLE ROCK    N/A     76  73  90 SW9G18    29.96F
JACKSONVILLE   CLEAR     77  74  90 SW13      29.97F
SEARCY         CLEAR     73  72  94 S6        29.99F
HOT SPRINGS    CLOUDY    76  72  87 S5        29.99F
RUSSELLVILLE   MOCLDY    75  74  96 VRB3      29.95F
CLINTON        CLOUDY    72  72 100 CALM      29.98S FOG
$$

ARZ036-261000-
EAST ARKANSAS

CITY           SKY/WX    TMP DP  RH WIND       PRES   REMARKS
WEST MEMPHIS   PTCLDY    70  66  87 S7        30.01S
$$

ARZ050-053-066-070-073-261000-
SOUTHWEST ARKANSAS

CITY           SKY/WX    TMP DP  RH WIND       PRES   REMARKS
ARKADELPHIA    FAIR      73  73 100 CALM      29.99F
CAMDEN         CLEAR     73  70  88 SE5       30.00F FOG
TEXARKANA      PTCLDY    76  72  87 S8        29.99S
EL DORADO      CLEAR     75  73  93 S8        30.01F
DE QUEEN       PTCLDY    77  74  90 S5        29.95S
$$

ARZ056-057-069-261000-
SOUTHEAST ARKANSAS

CITY           SKY/WX    TMP DP  RH WIND       PRES   REMARKS
PINE BLUFF     CLEAR     76  72  87 SW9       30.00F
STUTTGART      CLEAR     75  66  73 S9        30.00S
MONTICELLO     CLEAR     74  71  91 S6        30.02F

$$






USA.gov is the U.S. government's official web portal to all federal, state and local government web resources and services.